312P/NEAT (2007)

Japanese version
Home page
Updated on September 14, 2014

---------------------------------------------------------------------

* Profile

* Orbital Elements

Epoch 2007 Dec. 6.0 TT = JDT 2454440.5
T 2007 Nov. 23.93482 TT                                 MPC
q   1.9492473            (2000.0)            P               Q
n   0.15411330     Peri.  207.17168     +0.97509396     +0.10585039
a   3.4454237      Node   144.99952     -0.08367070     +0.98939489
e   0.4342503      Incl.   19.86470     -0.20540444     +0.09946577
P   6.40
From 29 observations 2001 Aug. 18-2014 Sept. 7, mean residual 0".5.

* Magnitudes Graph

        m1 = 14.5 + 5 log d + 10.0 log r

---------------------------------------------------------------------

The orbital elements are published on M.P.E.C. 2014-R91.
The magnitudes graphs are made with Comet for Windows.

---------------------------------------------------------------------

Copyright(C) Seiichi Yoshida (comet@aerith.net). All rights reserved.